Orbital Elements at Epoch 2459200.5 (2020-Dec-17.0) TDB
Reference: JPL 23 (heliocentric ecliptic J2000)
Element | Value | Uncertainty (1-sigma) | Units |
e | .3411595849760602 | 7.5341e-08 | |
a | 2.553558262621018 | 1.9985e-08 | au |
q | 1.682387385533042 | 1.9886e-07 | au |
i | 5.736382694002707 | 6.1436e-06 | deg |
node | 154.0719275371144 | 5.9484e-05 | deg |
peri | 185.5640533056253 | 6.0369e-05 | deg |
M | 300.4709062502432 | 9.3561e-06 | deg |
tp | 2459446.958530149295 (2021-Aug-20.45853015) | 3.8678e-05 | TDB |
period | 1490.448875750084 4.08 | 1.7498e-05 4.791e-08 | d yr |
n | .2415379727928113 | 2.8356e-09 | deg/d |
Q | 3.424729139708995 | 2.6804e-08 | au |
|
| | Orbit Determination Parameters
Additional Information
|